Content
SEND FEEDBACK

Daily
Averages
Monthly
Summary
United States of America

MOUNT SHASTA, CALIFORNIA


Home > North America > United States > California
Elevation: 3679 feet     Latitude: 41 19N     Longitude: 122 19W

WEATHER
 
SELECT A DAY
Number of Records: 236,206;   Date Range: 1/1/95 - 12/19/14
 
SHARE

PRINT THIS DATA

[ ← Previous Day ]
WEATHER ALMANAC - SEPTEMBER 18, 2013
[ Next Day → ]
[ °C ]   °F
Weather ElementAverageHighLow
Temperature54 °F69.1 °F (2:56 pm)44.1 °F (11:56 pm)
Dewpoint40.5 °F42.8 °F (8:15 am)37 °F (11:56 pm)
Humidity63.7 %86 % (4:56 am)32 % (2:56 pm)
Barometer30.07 in30.14 in (6:56 am)30.00 in (3:56 pm)
Wind Speed3.2 mph8.1 mph (2:56 am)
Weather ElementAverage
Visibility10 mi
Wind DirectionNNE (15.2 °)

Weather ElementTotal
Precipitation---
Heating Degree Days8.4 (Base 65)
Growing Degree Days6.6 (Base 50)
Averaged from 25 records on September 18, 2013
WEATHER CONDITIONS BREAKOUT
WIND DIRECTION BREAKOUT
WEATHER BY HOUR - SEPTEMBER 18, 2013
[ °C ]   °F
Local TimeTemperatureDewpointHumidityBarometerVisibilityWind DirectionWind SpeedGust SpeedPrecipitationEventsConditions
1:56 AM48.0 °F42.1 °F80 %30.07 in10.0 miVariable6.9 mphPartly Cloudy
2:56 AM46.9 °F42.1 °F83 %30.07 in10.0 miNW (320°)8.1 mphPartly Cloudy
3:56 AM46.9 °F41.0 °F80 %30.09 in10.0 miVariable3.5 mphClear
4:56 AM45.0 °F41.0 °F86 %30.10 in10.0 miNE (50°)3.5 mphPartly Cloudy
5:56 AM45.0 °F41.0 °F86 %30.12 in10.0 miCalmClear
6:56 AM45.0 °F41.0 °F86 %30.14 in10.0 miVariable3.5 mphPartly Cloudy
7:18 AM46.4 °F41.0 °F81 %30.10 in10.0 miVariable4.6 mphMostly Cloudy
7:56 AM48.0 °F42.1 °F80 %30.14 in10.0 miCalmMostly Cloudy
8:15 AM48.2 °F42.8 °F82 %30.10 in10.0 miNorth (10°)3.5 mphScattered Clouds
8:56 AM51.1 °F41.0 °F68 %30.14 in10.0 miVariable4.6 mphClear
9:56 AM55.0 °F39.9 °F57 %30.13 in10.0 miCalmClear
10:56 AM57.9 °F39.0 °F49 %30.10 in10.0 miVariable5.8 mphClear
11:56 AM62.1 °F42.1 °F48 %30.08 in10.0 miVariable4.6 mphClear
12:56 PM64.0 °F42.1 °F45 %30.06 in10.0 miVariable4.6 mphClear
1:56 PM66.9 °F41.0 °F39 %30.04 in10.0 miVariable4.6 mphClear
2:56 PM69.1 °F37.9 °F32 %30.02 in10.0 miVariable6.9 mphClear
3:56 PM69.1 °F37.9 °F32 %30.00 in10.0 miVariable6.9 mphClear
4:56 PM66.9 °F41.0 °F39 %30.01 in10.0 miVariable4.6 mphClear
5:56 PM66.0 °F41.0 °F40 %30.01 in10.0 miVariable3.5 mphClear
6:56 PM60.1 °F39.9 °F47 %30.03 in10.0 miCalmClear
7:56 PM54.0 °F42.1 °F64 %30.04 in10.0 miCalmClear
8:56 PM51.1 °F39.9 °F66 %30.06 in10.0 miCalmClear
9:56 PM46.9 °F39.0 °F74 %30.06 in10.0 miCalmClear
10:56 PM46.0 °F37.9 °F73 %30.06 in10.0 miCalmClear
11:56 PM44.1 °F37.0 °F76 %30.05 in10.0 miCalmClear
Hourly data recorded from KMHS, located miles away from Mount Shasta, California







STORIES FROM OUR PARTNERS